Overview Statistics Trail Chart Weather Telemetry Raw packets
 

This is the latest recevied weather packets stored in our database for station/object OK4PZ-5. If no packets are shown the sender has not sent any weather packets the latest 10 day(s).

<< 11 12 13 14 15 16 17 >>
Time Temp. Humidity Pressure Rain* Wind** Luminosity Snow
1788337802 21.11° C 59% 1024 hPa 0 mm - - -
1788336901 20.56° C 62% 1024 hPa 0 mm - - -
1788336002 20.56° C 63% 1024 hPa 0 mm - - -
1788335102 20° C 63% 1024 hPa 0 mm - - -
1788334202 18.89° C 66% 1024 hPa 0 mm - - -
1788333302 17.22° C 72% 1024 hPa 0 mm - - -
1788332402 17.22° C 72% 1024 hPa 0 mm - - -
1788331502 15.56° C 78% 1024 hPa 0 mm - - -
1788330603 15.56° C 77% 1024 hPa 0 mm - - -
1788329702 14.44° C 81% 1024 hPa 0 mm - - -
1788328802 13.33° C 86% 1024 hPa 0 mm - - -
1788327902 12.78° C 88% 1024 hPa 0 mm - - -
1788327003 10.56° C 94% 1024 hPa 0 mm - - -
1788326102 10.56° C 96% 1024 hPa 0 mm - - -
1788325202 10.56° C 95% 1024 hPa 0 mm - - -
1788324302 10.56° C 95% 1024 hPa 0 mm - - -
1788323402 10.56° C 95% 1024 hPa 0 mm - - -
1788322501 10.56° C 94% 1024 hPa 0 mm - - -
1788321602 10.56° C 94% 1024 hPa 0 mm - - -
1788320702 10° C 96% 1024 hPa 0 mm - - -
1788319803 10° C 96% 1024 hPa 0 mm - - -
1788318903 10° C 96% 1024 hPa 0 mm - - -
1788318001 10° C 96% 1024 hPa 0 mm - - -
1788317102 10° C 96% 1024 hPa 0 mm - - -
1788316202 9.44° C 96% 1024 hPa 0 mm - - -

* Rain latest hour (hover to see other rain measurements)
** Current wind speed in m/s (hover to see current wind gust speed)